Content
SEND FEEDBACK

Daily
Averages
Monthly
Summary
Spain

ZARAGOZA, SPAIN


Home > Europe > Spain
Elevation: 846 feet     Latitude: 41 40N     Longitude: 001 01W

WEATHER
 
SELECT A DAY
Number of Records: 313,943;   Date Range: 7/1/96 - 8/28/14
 
SHARE

PRINT THIS DATA

[ ← Previous Day ]
WEATHER ALMANAC - MARCH 3, 2013
[ Next Day → ]
[ °C ]   °F
Weather ElementAverageHighLow
Temperature46 °F57.2 °F (2:30 pm)35.6 °F (6:30 am)
Dewpoint37 °F42.8 °F (11:30 pm)32 °F (7:00 am)
Humidity72.1 %93 % (3:30 am)44 % (5:00 pm)
Barometer29.99 in30.10 in (1:00 am)29.92 in (3:30 pm)
Wind Speed5.9 mph12.7 mph (5:00 pm)
Weather ElementAverage
Visibility4.8 mi
Wind DirectionESE (111 °)

Weather ElementTotal
Precipitation---
Heating Degree Days18.6 (Base 65)
Averaged from 49 records on March 3, 2013
WEATHER CONDITIONS BREAKOUT
WIND DIRECTION BREAKOUT
WEATHER BY HOUR - MARCH 3, 2013
[ °C ]   °F
Local TimeTemperatureDewpointHumidityBarometerVisibilityWind DirectionWind SpeedGust SpeedPrecipitationEventsConditions
12:30 AM41.0 °F35.6 °F81 %30.06 in3.1 miSE (140°)3.5 mphMist
1:00 AM42.0 °F39.0 °F83 %30.10 in3.0 miESE (120°)2.3 mphMist
1:00 AM41.0 °F35.6 °F81 %30.06 in2.5 miSE (140°)4.6 mphMist
1:30 AM41.0 °F35.6 °F81 %30.06 inESE (120°)4.6 mphMist
2:00 AM41.0 °F35.6 °F81 %30.06 inEast (100°)3.5 mphMist
2:30 AM41.0 °F35.6 °F81 %30.06 inESE (120°)3.5 mphMist
3:00 AM37.4 °F33.8 °F87 %30.04 inSE (140°)3.5 mphMist
3:30 AM37.4 °F35.6 °F93 %30.04 inSE (130°)3.5 mphMist
4:00 AM37.4 °F33.8 °F87 %30.04 inSSE (150°)1.2 mphMist
4:30 AM37.4 °F33.8 °F87 %30.04 inESE (120°)3.5 mphMist
5:00 AM37.4 °F33.8 °F87 %30.01 inSSE (150°)4.6 mphMist
5:30 AM37.4 °F33.8 °F87 %30.01 inSSE (150°)2.3 mphMist
6:00 AM37.4 °F33.8 °F87 %30.01 in3.1 miESE (120°)4.6 mphMist
6:30 AM35.6 °F33.8 °F93 %30.01 in3.1 miESE (110°)4.6 mphMist
7:00 AM36.0 °F34.0 °F90 %30.07 in4.0 miSE (130°)2.3 mphMist
7:00 AM35.6 °F32.0 °F87 %30.04 in3.7 miSE (140°)2.3 mph
7:30 AM35.6 °F33.8 °F93 %30.04 in3.7 miVariable1.2 mph
8:00 AM35.6 °F33.8 °F93 %30.04 in3.7 miESE (110°)1.2 mph
8:30 AM35.6 °F33.8 °F93 %30.04 in4.3 miESE (120°)1.2 mph
9:00 AM37.4 °F35.6 °F93 %30.04 in4.3 miVariable2.3 mph
9:30 AM39.2 °F35.6 °F87 %30.04 in4.3 miESE (110°)3.5 mph
10:00 AM41.0 °F35.6 °F81 %30.04 in4.3 miESE (110°)4.6 mph
11:00 AM44.6 °F37.4 °F76 %30.04 in4.3 miEast (80°)3.5 mph
11:30 AM46.4 °F37.4 °F71 %30.04 in4.3 miEast (100°)6.9 mph
12:00 PM48.2 °F39.2 °F71 %30.01 in4.3 miEast (90°)5.8 mph
12:30 PM50.0 °F39.2 °F66 %30.01 in4.3 miESE (110°)8.1 mph
1:00 PM52.0 °F38.0 °F48 %30.02 in5.0 miEast (90°)9.2 mphHaze
1:00 PM51.8 °F39.2 °F62 %30.01 in5.0 miEast (100°)9.2 mph
1:30 PM51.8 °F37.4 °F58 %29.98 in5.0 miESE (110°)10.4 mph
2:00 PM55.4 °F39.2 °F54 %29.98 in5.0 miEast (100°)10.4 mph
2:30 PM57.2 °F39.2 °F51 %29.95 in5.0 miEast (100°)9.2 mph
3:00 PM55.4 °F39.2 °F54 %29.95 in5.0 miEast (100°)9.2 mph
3:30 PM55.4 °F39.2 °F54 %29.92 in5.0 miEast (100°)10.4 mphPartly Cloudy
4:00 PM57.2 °F37.4 °F48 %29.92 in5.0 miESE (110°)11.5 mphPartly Cloudy
4:30 PM57.2 °F37.4 °F48 %29.92 in5.6 miESE (120°)11.5 mphPartly Cloudy
5:00 PM57.2 °F35.6 °F44 %29.92 in5.6 miESE (120°)12.7 mphPartly Cloudy
5:30 PM57.2 °F37.4 °F48 %29.92 in5.6 miESE (120°)12.7 mphPartly Cloudy
6:00 PM55.4 °F39.2 °F54 %29.92 in5.6 miESE (120°)10.4 mphPartly Cloudy
7:00 PM53.0 °F38.0 °F45 %29.93 in6.0 miESE (110°)4.6 mphHaze
7:00 PM53.6 °F37.4 °F54 %29.92 in5.6 miESE (110°)4.6 mphPartly Cloudy
7:30 PM53.6 °F37.4 °F54 %29.92 in5.6 miESE (120°)6.9 mphPartly Cloudy
8:00 PM51.8 °F39.2 °F62 %29.92 in5.6 miSSE (150°)8.1 mphPartly Cloudy
8:30 PM51.8 °F39.2 °F62 %29.92 in5.6 miESE (120°)4.6 mphPartly Cloudy
9:00 PM50.0 °F41.0 °F71 %29.92 in5.6 miESE (120°)4.6 mphPartly Cloudy
9:30 PM51.8 °F41.0 °F67 %29.92 in6.2 miESE (110°)5.8 mphPartly Cloudy
10:00 PM50.0 °F41.0 °F71 %29.92 in6.2 miEast (90°)6.9 mphPartly Cloudy
10:30 PM50.0 °F41.0 °F71 %29.92 in6.2 miEast (100°)6.9 mphPartly Cloudy
11:00 PM48.2 °F41.0 °F76 %29.92 in6.2 miEast (100°)8.1 mphPartly Cloudy
11:30 PM48.2 °F42.8 °F82 %29.92 in6.2 miESE (110°)10.4 mphPartly Cloudy
Hourly data recorded from LEZG, located miles away from Zaragoza, Spain







STORIES FROM OUR PARTNERS